Back to catalog

STARLINK-30928

AliveCommunicationsVLEO
NORAD 58452·PAYLOAD·🇺🇸 United States

Launched Nov 28, 2023 from Cape Canaveral Space Force Station

Loading…

Next Passes (next 24 hours)

TLE

FreshSource: CelesTrak SupGP

Epoch: Sep 14, 2026, 21:07 UTC

1 58452C 23183R   26257.88034722  .00056104  00000+0  20322-2 0  2570
2 58452  43.0027  53.0849 0001701 272.8779 299.8504 15.27548593    19

Track STARLINK-30928 in real time with AllMySat

Download on the App Store